This demonstration page uses our WeatherBlox Daily Observations layout. Learn more.

Left ArrowRight Arrow

47.50024, -111.30081

Hourly Observations for July 30, 2020

Temp ( °F °C ) Dew Point ( °F °C ) Humidity (%) Winds ( mph kmh ) Pressure ( in mb ) Visibility ( mi km ) Precip ( " mm )
12:53 am 00:53 Clear 69 20.6 44 6.7 41 41 SSW 10 17 29.98 1015 10 16 0.00 0.00
1:53 am 01:53 Clear 68 20 44 6.7 42 42 SSW 10 17 29.98 1015 10 16 0.00 0.00
2:53 am 02:53 Clear 66 18.9 44 6.7 45 45 SSW 9 15 29.99 1016 10 16 0.00 0.00
3:53 am 03:53 Clear 63 17.2 44 6.7 50 50 SSW 9 15 30.00 1016 10 16 0.00 0.00
4:53 am 04:53 Clear 65 18.3 44 6.7 47 47 SSW 9 15 30.01 1016 10 16 0.00 0.00
5:53 am 05:53 Clear 62 16.7 44 6.7 52 52 SW 8 13 30.02 1017 10 16 0.00 0.00
6:53 am 06:53 Sunny 59 15 46 7.8 62 62 WSW 5 7 30.04 1017 10 16 0.00 0.00
7:53 am 07:53 Sunny 70 21.1 47 8.3 44 44 SSW 8 13 30.05 1018 10 16 0.00 0.00
8:53 am 08:53 Sunny 75 23.9 47 8.3 37 37 SSW 13 20 30.06 1018 10 16 0.00 0.00
9:53 am 09:53 Sunny 79 26.1 49 9.4 35 35 SSW 10 17 30.07 1018 10 16 0.00 0.00
10:53 am 10:53 Sunny 83 28.3 48 8.9 30 30 SW 9 15 30.07 1018 10 16 0.00 0.00
11:53 am 11:53 Sunny 86 30 48 8.9 27 27 VRB 5 7 30.06 1018 10 16 0.00 0.00
12:53 pm 12:53 Sunny 88 31.1 48 8.9 25 25 VRB 5 7 30.05 1018 10 16 0.00 0.00
1:53 pm 13:53 Sunny 91 32.8 47 8.3 22 22 undefined N/A 30.04 1017 10 16 0.00 0.00
2:53 pm 14:53 Sunny 91 32.8 43 6.1 19 19 Calm 30.03 1017 10 16 0.00 0.00
3:53 pm 15:53 Sunny 93 33.9 43 6.1 18 18 VRB 3 6 30.02 1017 10 16 0.00 0.00
4:53 pm 16:53 Sunny 93 33.9 42 5.6 17 17 SW 9 15 30.01 1016 10 16 0.00 0.00
5:53 pm 17:53 Sunny 92 33.3 41 5 17 17 VRB 3 6 30.01 1016 10 16 0.00 0.00
6:53 pm 18:53 Sunny 88 31.1 43 6.1 21 21 E 3 6 30.03 1017 10 16 0.00 0.00
7:53 pm 19:53 Sunny 85 29.4 45 7.2 25 25 E 9 15 30.01 1016 10 16 0.00 0.00
8:53 pm 20:53 Cloudy 81 27.2 44 6.7 27 27 WNW 10 17 30.05 1018 10 16 0.00 0.00
9:07 pm 21:07 Mostly Cloudy with Nearby Thunderstorms 81 27.2 45 7.2 28 28 NNW 6 9 29.90 1013 10 16 0.00 0.00
9:23 pm 21:23 Partly Cloudy 80 26.7 45 7.2 29 29 WNW 12 19 29.91 1013 10 16 0.00 0.00
9:53 pm 21:53 Mostly Cloudy with Light Rain 74 23.3 49 9.4 41 41 N 10 17 30.04 1017 10 16 0.00 0.00
10:37 pm 22:37 Clear 76 24.4 50 10 40 40 VRB 7 11 29.93 1014 10 16 0.00 0.00
10:53 pm 22:53 Clear 75 23.9 51 10.6 43 43 Calm 30.05 1018 10 16 0.00 0.00
11:53 pm 23:53 Clear 68 20 50 10 53 53 S 6 9 30.06 1018 10 16 0.00 0.00

Powered by AerisWeather